Location: Newark
(45.8667°N, 9.7333°E)
Time: 04:18:02
(UTC+00:00)

Explorer 11/Cluster Stage 4 - Visible Passes

Search period start: 19 January 2020 00:00
Search period end: 29 January 2020 00:00
Orbit: 467 x 1259 km, 28.8° (Epoch: 18 January)

Date Brightness Start Highest point End Pass type
(mag) Time Alt. Az. Time Alt. Az. Time Alt. Az.
19 Jan 9.0 16:36:49 10° SSW 16:39:29 13° S 16:41:58 10° SSE visible
19 Jan 8.8 18:25:19 10° SSW 18:27:01 11° S 18:28:38 10° S visible
20 Jan 8.9 18:14:06 10° SW 18:16:10 12° SSW 18:18:08 10° S visible
21 Jan 9.0 18:02:57 10° SW 18:05:19 12° SSW 18:07:32 10° S visible
22 Jan 9.1 17:51:52 10° SW 17:54:26 13° SSW 17:56:50 10° S visible
23 Jan 9.2 17:40:50 10° SW 17:43:31 13° SSW 17:46:02 10° S visible
24 Jan 9.3 17:29:51 10° SW 17:32:36 13° SSW 17:35:10 10° S visible
25 Jan 9.5 17:18:56 10° SW 17:21:39 12° SSW 17:24:11 10° S visible
26 Jan 9.6 17:08:06 10° SW 17:10:40 12° SSW 17:13:05 10° S visible
27 Jan 9.8 16:57:25 10° SW 16:59:39 11° SSW 17:01:49 10° S visible
28 Jan 10.0 16:46:56 10° SW 16:48:38 11° SSW 16:50:17 10° SSW visible
